Darstellungsparameter: Aktuell verwendete Einstellungen:
Skalierung der Graphiken ... ?
xyx+y,   Skalierungsfaktor:      Skalierung: Modus: x, Faktor: 1
Darstellungszeitraum ... ?
Vom - - bis: - -   Zeitraum: 16.01.2010 - 15.04.2010
Min/Max/Avg-Anzeige ... ?
Zeige MMA aktuell
Zeige MMA Monat
Zeige MMA alles
Zeige --A aktuell
Zeige --A Monat
Zeige --A alles
Keine MMA-Anzeige
MMA:
Average (ber die Originaldaten)
MMA-Basis: 16.01.2010 - 15.04.2010
Quicknavigation für Darstellung... ?
Tage:      1T, 2T, 3T, 5T -1T -2T -3T -5T +1T +2T +3T +5T
Wochen: 1W, 2W, 3W -1W -2W -3W +1W +2W +3W
Monate: 1M, 3M, 6M -1M -3M -6M +1M +3M +6M
Jahre:    1J, 3J, 5J, 10J -1J -3J -5J -10J +1J +3J +5J +10J
Nutze für die Darstellung ... ?
Originaldaten oder ...
Mittelwerte Minima Maxima auf...
Stundenbasis Tagesbasis Wochenbasis
Monatsbasis Jahresbasis      Datenbasis: Mittelwerte auf Tagesbasis
Darstellen als:
Statistik (Auto) Statistik J:M      Darstellung:
Zur Graphik,    zurück zur Übersicht aller Sensoren.
 
Tabellarische Datenbersicht: ?
 
Sensor: Nr:Datum:Temp:Abs-Feuchte:Windchill:Wind:
Aussen-T/F 1 16-01-2010 00:00:00 -0.11833 C 3.75 g/m*3 -0.12 C 0 km/h
2 17-01-2010 00:00:00 2.09667 C 5.1 g/m*3 2.1 C 0 km/h
3 18-01-2010 00:00:00 3.38333 C 5.07 g/m*3 3.38 C 0 km/h
4 19-01-2010 00:00:00 2.24583 C 5.1 g/m*3 2.25 C 0 km/h
5 20-01-2010 00:00:00 1.97417 C 4.66 g/m*3 1.97 C 0 km/h
6 21-01-2010 00:00:00 2.45126 C 4.02 g/m*3 2.45 C 0 km/h
7 22-01-2010 00:00:00 2.93667 C 4.24 g/m*3 2.94 C 0 km/h
8 23-01-2010 00:00:00 -0.41333 C 3.36 g/m*3 -0.41 C 0 km/h
9 24-01-2010 00:00:00 0.27167 C 4.06 g/m*3 0.27 C 0 km/h
10 25-01-2010 00:00:00 0.01667 C 4.19 g/m*3 0.02 C 0 km/h
11 26-01-2010 00:00:00 -3.325 C 2.8 g/m*3 -3.33 C 0 km/h
12 27-01-2010 00:00:00 -5.54083 C 2.18 g/m*3 -5.54 C 0 km/h
13 28-01-2010 00:00:00 1.20667 C 4.04 g/m*3 1.21 C 0 km/h
14 29-01-2010 00:00:00 1.39083 C 4.5 g/m*3 1.39 C 0 km/h
15 30-01-2010 00:00:00 -1.54583 C 3.39 g/m*3 -1.55 C 0 km/h
16 31-01-2010 00:00:00 -1.62333 C 3.2 g/m*3 -1.62 C 0 km/h
17 01-02-2010 00:00:00 0.20167 C 3.69 g/m*3 0.2 C 0 km/h
18 02-02-2010 00:00:00 0.69916 C 4 g/m*3 0.7 C 0 km/h
19 03-02-2010 00:00:00 2.28899 C 5.05 g/m*3 2.29 C 0 km/h
20 04-02-2010 00:00:00 4.17018 C 5.55 g/m*3 4.17 C 0 km/h
21 05-02-2010 00:00:00 3.29649 C 4.9 g/m*3 3.3 C 0 km/h
22 06-02-2010 00:00:00 4.55172 C 5.47 g/m*3 4.55 C 0 km/h
23 07-02-2010 00:00:00 4.17018 C 5.02 g/m*3 4.17 C 0 km/h
24 08-02-2010 00:00:00 -0.75 C 2.85 g/m*3 -0.75 C 0 km/h
25 09-02-2010 00:00:00 -3.74483 C 2.17 g/m*3 -3.74 C 0 km/h
Sensor: Nr:Datum:Temp:Abs-Feuchte:Windchill:Wind:
Aussen-T/F 26 10-02-2010 00:00:00 -4.8 C 2.32 g/m*3 -4.8 C 0 km/h
27 11-02-2010 00:00:00 -3.79828 C 2.62 g/m*3 -3.8 C 0 km/h
28 12-02-2010 00:00:00 -2.14737 C 2.95 g/m*3 -2.15 C 0 km/h
29 13-02-2010 00:00:00 -2.57414 C 2.82 g/m*3 -2.57 C 0 km/h
30 14-02-2010 00:00:00 -2.13621 C 3.1 g/m*3 -2.14 C 0 km/h
31 15-02-2010 00:00:00 -1.12632 C 3.21 g/m*3 -1.13 C 0 km/h
32 16-02-2010 00:00:00 -1.16379 C 3.02 g/m*3 -1.16 C 0 km/h
33 17-02-2010 00:00:00 -1.61754 C 3.18 g/m*3 -1.62 C 0 km/h
34 18-02-2010 00:00:00 3.2569 C 4.56 g/m*3 3.26 C 0 km/h
35 19-02-2010 00:00:00 3.59375 C 4.12 g/m*3 3.59 C 0 km/h
36 20-02-2010 00:00:00 1.69333 C 3.53 g/m*3 1.69 C 0 km/h
37 21-02-2010 00:00:00 2.87833 C 4.25 g/m*3 2.88 C 0 km/h
38 22-02-2010 00:00:00 6.76417 C 5.24 g/m*3 6.76 C 0 km/h
39 23-02-2010 00:00:00 9.7875 C 7.07 g/m*3 9.79 C 0 km/h
40 24-02-2010 00:00:00 9.55 C 6.5 g/m*3 9.55 C 0 km/h
41 25-02-2010 00:00:00 9.58 C 5.92 g/m*3 9.58 C 0 km/h
42 26-02-2010 00:00:00 8.62667 C 5.33 g/m*3 8.63 C 0 km/h
43 27-02-2010 00:00:00 8.4025 C 4.07 g/m*3 8.4 C 0 km/h
44 28-02-2010 00:00:00 8.30667 C 5.5 g/m*3 8.31 C 0 km/h
45 01-03-2010 00:00:00 5.40917 C 3.85 g/m*3 5.41 C 0 km/h
46 02-03-2010 00:00:00 3.135 C 3.87 g/m*3 3.14 C 0 km/h
47 03-03-2010 00:00:00 2.9925 C 3.33 g/m*3 2.99 C 0 km/h
48 04-03-2010 00:00:00 2.47395 C 2.67 g/m*3 2.47 C 0 km/h
49 05-03-2010 00:00:00 0.77667 C 2.41 g/m*3 0.78 C 0 km/h
50 06-03-2010 00:00:00 -0.47083 C 3.38 g/m*3 -0.47 C 0 km/h
Sensor: Nr:Datum:Temp:Abs-Feuchte:Windchill:Wind:
Aussen-T/F 51 07-03-2010 00:00:00 -1.6825 C 2.27 g/m*3 -1.68 C 0 km/h
52 08-03-2010 00:00:00 -1.21083 C 1.92 g/m*3 -1.21 C 0 km/h
53 09-03-2010 00:00:00 -0.87167 C 1.76 g/m*3 -0.87 C 0 km/h
54 10-03-2010 00:00:00 1.41667 C 1.75 g/m*3 1.42 C 0 km/h
55 11-03-2010 00:00:00 0.40167 C 2.56 g/m*3 0.4 C 0 km/h
56 12-03-2010 00:00:00 1.61167 C 3.86 g/m*3 1.61 C 0 km/h
57 13-03-2010 00:00:00 4.36583 C 4.23 g/m*3 4.37 C 0 km/h
58 14-03-2010 00:00:00 5.79833 C 4.06 g/m*3 5.8 C 0 km/h
59 15-03-2010 00:00:00 6.445 C 5.04 g/m*3 6.45 C 0 km/h
60 16-03-2010 00:00:00 6.08067 C 5.63 g/m*3 6.08 C 0 km/h
61 17-03-2010 00:00:00 6.69417 C 4.48 g/m*3 6.69 C 0 km/h
62 18-03-2010 00:00:00 10.12333 C 4.54 g/m*3 10.12 C 0 km/h
63 19-03-2010 00:00:00 15.0225 C 4.66 g/m*3 15.02 C 0 km/h
64 20-03-2010 00:00:00 14.37667 C 8.46 g/m*3 14.38 C 0 km/h
65 21-03-2010 00:00:00 11.23667 C 8.65 g/m*3 11.24 C 0 km/h
66 22-03-2010 00:00:00 9.7575 C 7.03 g/m*3 9.76 C 0 km/h
67 23-03-2010 00:00:00 8.94 C 6.12 g/m*3 8.94 C 0 km/h
68 24-03-2010 00:00:00 11.9975 C 6.24 g/m*3 12 C 0 km/h
69 25-03-2010 00:00:00 14.27083 C 6.52 g/m*3 14.27 C 0 km/h
70 26-03-2010 00:00:00 10.0325 C 7.02 g/m*3 10.03 C 0 km/h
71 27-03-2010 00:00:00 9.34333 C 5.7 g/m*3 9.34 C 0 km/h
72 28-03-2010 00:00:00 9.93478 C 6.19 g/m*3 9.93 C 0 km/h
73 29-03-2010 00:00:00 11.88167 C 8.04 g/m*3 11.88 C 0 km/h
74 30-03-2010 00:00:00 12.70672 C 6.43 g/m*3 12.71 C 0 km/h
75 31-03-2010 00:00:00 8.18667 C 4.45 g/m*3 8.19 C 0 km/h
Sensor: Nr:Datum:Temp:Abs-Feuchte:Windchill:Wind:
Aussen-T/F 76 01-04-2010 00:00:00 5.84333 C 3.76 g/m*3 5.84 C 0 km/h
77 02-04-2010 00:00:00 6.48583 C 4.37 g/m*3 6.49 C 0 km/h
78 03-04-2010 00:00:00 9.73667 C 5.47 g/m*3 9.74 C 0 km/h
79 04-04-2010 00:00:00 8.98833 C 5.25 g/m*3 8.99 C 0 km/h
80 05-04-2010 00:00:00 9.15083 C 4.56 g/m*3 9.15 C 0 km/h
81 06-04-2010 00:00:00 10.38167 C 4.41 g/m*3 10.38 C 0 km/h
82 07-04-2010 00:00:00 13.61167 C 5.07 g/m*3 13.61 C 0 km/h
83 08-04-2010 00:00:00 12.375 C 6.96 g/m*3 12.38 C 0 km/h
84 09-04-2010 00:00:00 11.49917 C 5.91 g/m*3 11.5 C 0 km/h
85 10-04-2010 00:00:00 11.3575 C 4.66 g/m*3 11.36 C 0 km/h
86 11-04-2010 00:00:00 7.86667 C 4.35 g/m*3 7.87 C 0 km/h
87 12-04-2010 00:00:00 7.44958 C 5.35 g/m*3 7.45 C 0 km/h
88 13-04-2010 00:00:00 11.85583 C 6.16 g/m*3 11.86 C 0 km/h
89 14-04-2010 00:00:00 11.76417 C 4.66 g/m*3 11.76 C 0 km/h
90 15-04-2010 00:00:00 11.8575 C 5 g/m*3 11.86 C 0 km/h

Maximal/Minimal-Werte vom 16.01.2010 - 15.04.2010

Sensor Min Max Avg
Temp
(Aussen-T/F)
-9.4 °C
27-01-2010  02:41:02
25.9 °C
07-04-2010  17:06:03
5.21 °C
Abs-Feuchte
(Aussen-T/F)
1.75 g/m*3
10-03-2010  00:00:00
8.65 g/m*3
21-03-2010  00:00:00
4.45 g/m*3
Windchill
(Aussen-T/F)
-5.54 C
27-01-2010  00:00:00
15.02 C
19-03-2010  00:00:00
4.67 C

Die Daten stammen von einer Davis Vantage Pro 2 Wetter-Station und werden unter Linux mit der Software wview2wettercgi und aufbereitet. Alle Angaben erfolgen ohne Gewähr für ihre Vollständigkeit oder Richtigkeit.
Kontakt: Rainer Krienke krienke@uni-koblenz.de . Meine Webseiten an der Uni Koblenz oder privat.
Version: $Revision: 0.78 $